Regional Weather Roundup
Issued by NWS Newport/Morehead, NC

Current Version | Previous Version | Text Only | Print | Product List | Glossary On
Versions: 1 2 3 4 5 6 7 8 9 10 11 12 13 14 15 16 17 18 19 20 21 22 23 24 25 26 27 28 29 30 31 32 33 34 35 36 37 38 39 40 41 42 43 44 45 46 47 48 49 50
186 ASUS42 KMHX 250625 RWRMHX WEATHER ROUNDUP FOR EASTERN NORTH CAROLINA NATIONAL WEATHER SERVICE NEWPORT/MOREHEAD CITY NC 200 AM EDT MON SEP 25 2017 NOTE: "FAIR" INDICATES FEW OR NO CLOUDS BELOW 12,000 FEET WITH NO SIGNIFICANT WEATHER AND/OR OBSTRUCTIONS TO VISIBILITY NCZ015>017-031-032-045>047-102-103-250700- NORTH COAST CITY SKY/WX TMP DP RH WIND PRES REMARKS EDENTON CLEAR 68 66 93 CALM 29.98S ELIZABETH CITY PTCLDY 71 70 96 NE10 29.98R KITTY HAWK CLOUDY 70 65 83 NE8G18 29.96S MANTEO MOCLDY 71 67 87 NE20 29.97R $$ NCZ045>047-081-094-103-104-250700- CENTRAL COAST CITY SKY/WX TMP DP RH WIND PRES REMARKS FRISCO MOCLDY 73 70 90 NE9G18 29.92F $$ NCZ095-097-098-100-101-250700- SOUTHERN COAST CITY SKY/WX TMP DP RH WIND PRES REMARKS BEAUFORT PTCLDY 73 72 96 NE9 29.91F CEDAR ISLAND NOT AVBL JACKSONVILLE CLOUDY 71 68 90 N8 29.93F PINEY ISLAND N/A N/A N/A N/A N14 29.93S WILMINGTON PTCLDY 70 65 84 N9 29.92F $$ NCZ011>013-027>030-043-044-078>080-089-090>093-098-250700- COASTAL PLAIN CITY SKY/WX TMP DP RH WIND PRES REMARKS AHOSKIE CLEAR 64 62 94 N3 29.98F CLINTON MOCLDY 68 64 86 N5 29.96S ELIZABETHTOWN NOT AVBL GOLDSBORO MOCLDY 68 66 92 N7 29.95F GREENVILLE PTCLDY 63 61 94 N5 29.99S HAVELOCK CLOUDY 72 70 93 N12 29.94F KENANSVILLE HAZE 66 63 88 N5 29.96S VSB 3/4 KINSTON MOCLDY 66 63 89 N5 29.97S NEW BERN CLOUDY 71 69 93 NE7 29.96S RICHLANDS MOCLDY 68 65 90 N5 29.95S ROCKY MOUNT CLEAR 63 61 93 NE6 29.99F WASHINGTON CLOUDY 66 64 93 N5 29.97R WHITEVILLE CLOUDY 71 64 79 NE5 29.93S $$ AMZ130-135-150-152-154-156-158-170-250-252-270-ANZ085-086-088-633-658-670-250700- MARINE OBSERVATIONS STATION/POSITION TIME TEMP WIND PRES WAVE SWELL AIR SEA DIR/SP/G HT/PER HT/PER (UTC) (F) (DEG/KT/KT) (MB) (FT/S) (FT/S) CHESAPEAKE LIGHT NOT AVBL 64 E VA BEACH 0550 71 70 60/ 14/ 17 1015.2 11/15 10/15 DUCK 0600 72 77 60/ 16/ 19 1014.6 2 E DUCK 0530 75 N/A 6/14 3/14 OREGON INLET 0600 72 76 40/ 14/ 20 1013.9 13E OREGON INLT 0548 75 N/A 8/12 8/12 HATTERAS CG 0600 73 78 50/ 15/ 20 1013.3 DIAMOND BUOY 0550 75 80 30/ 21/ 25 1012.2 11/15 10/15 CAPE LOOKOUT 0600 75 30/ 21/ 24 1012.5 BEAUFORT LAB 0600 73 76 30/ 9/ 12 1012.4 30 SE NEW RVR IN 0608 77 50/ 21/ 27 1011.7 30 SE NEW RVR IN NOT AVBL 27 SE WRIGHTSVLE 0608 76 80 60/ 19/ 27 1011.6 5 SE WRIGHTSVLE 0608 74 78 50/ 14/ 25 1012.5 225 S CAPE HAT 0550 81 80 20/ 35/ 41 999.4 23/14 13/14 41 SE CHARLESTON 0610 79 30/ 21/ 25 1011.1 $$

USA.gov is the U.S. government's official web portal to all federal, state and local government web resources and services.